"","ID","Lat","Lon","Year","Miss Tmax","Miss Tmin","Miss Prcp","Avg Temp","Avg Tmax","Avg Tmin","ToT Prcp","Max Tmax","Min Tmax","Max Tmin","Min Tmin","Warm Days","Warm Nights","Cold Days","Cold Nights","Max 1-day P","Max 5-day P","Wet Days"
"1896-12-31","USW00013876",33.5656,-86.745,1896,1,1,1,65.26,75.35,55.18,36.99,101,32,80,14,12.33,12.33,11.78,8.49,1.97,4.82,14.62
"1897-12-31","USW00013876",33.5656,-86.745,1897,1,1,1,65.67,76.05,55.29,47.73,101,21,80,10,14.25,12.05,8.49,6.85,2.95,4.39,21.55
"1898-12-31","USW00013876",33.5656,-86.745,1898,1,1,0,64.26,74,54.52,46.59,99,36,78,15,7.12,9.59,13.15,11.23,1.82,2.6,19.88
"1899-12-31","USW00013876",33.5656,-86.745,1899,0,0,0,64.73,74.71,54.75,46.88,100,16,78,-10,10.14,13.97,12.88,10.96,3.41,4.11,22.75
"1900-12-31","USW00013876",33.5656,-86.745,1900,0,0,0,65.12,74.68,55.56,76.21,100,29,76,11,5.75,9.32,8.22,8.77,4.18,7.93,50.95
"1901-12-31","USW00013876",33.5656,-86.745,1901,0,1,0,62.58,73.21,51.96,61.53,104,27,79,5,10.68,8.77,11.51,13.15,3.4,6.62,40.52
"1902-12-31","USW00013876",33.5656,-86.745,1902,1,1,0,64.49,74.5,54.48,54.41,102,33,79,13,13.97,13.42,13.97,11.78,3.5,7.72,29.15
"1903-12-31","USW00013876",33.5656,-86.745,1903,111,113,0,65.06,74.25,55.88,50.54,97,28,77,13,2.74,6.58,8.49,5.21,5.6,6.98,24.86
"1904-12-31","USW00013876",33.5656,-86.745,1904,366,366,366,NA,NA,NA,0,-Inf,Inf,-Inf,Inf,0,0,0,0,-Inf,0,0
"1905-12-31","USW00013876",33.5656,-86.745,1905,365,365,365,NA,NA,NA,0,-Inf,Inf,-Inf,Inf,0,0,0,0,-Inf,0,0
"1906-12-31","USW00013876",33.5656,-86.745,1906,365,365,365,NA,NA,NA,0,-Inf,Inf,-Inf,Inf,0,0,0,0,-Inf,0,0
"1907-12-31","USW00013876",33.5656,-86.745,1907,365,365,365,NA,NA,NA,0,-Inf,Inf,-Inf,Inf,0,0,0,0,-Inf,0,0
"1908-12-31","USW00013876",33.5656,-86.745,1908,366,366,366,NA,NA,NA,0,-Inf,Inf,-Inf,Inf,0,0,0,0,-Inf,0,0
"1909-12-31","USW00013876",33.5656,-86.745,1909,365,365,365,NA,NA,NA,0,-Inf,Inf,-Inf,Inf,0,0,0,0,-Inf,0,0
"1910-12-31","USW00013876",33.5656,-86.745,1910,365,365,365,NA,NA,NA,0,-Inf,Inf,-Inf,Inf,0,0,0,0,-Inf,0,0
"1911-12-31","USW00013876",33.5656,-86.745,1911,365,365,365,NA,NA,NA,0,-Inf,Inf,-Inf,Inf,0,0,0,0,-Inf,0,0
"1912-12-31","USW00013876",33.5656,-86.745,1912,366,366,366,NA,NA,NA,0,-Inf,Inf,-Inf,Inf,0,0,0,0,-Inf,0,0
"1913-12-31","USW00013876",33.5656,-86.745,1913,365,365,365,NA,NA,NA,0,-Inf,Inf,-Inf,Inf,0,0,0,0,-Inf,0,0
"1914-12-31","USW00013876",33.5656,-86.745,1914,365,365,365,NA,NA,NA,0,-Inf,Inf,-Inf,Inf,0,0,0,0,-Inf,0,0
"1915-12-31","USW00013876",33.5656,-86.745,1915,365,365,365,NA,NA,NA,0,-Inf,Inf,-Inf,Inf,0,0,0,0,-Inf,0,0
"1916-12-31","USW00013876",33.5656,-86.745,1916,366,366,366,NA,NA,NA,0,-Inf,Inf,-Inf,Inf,0,0,0,0,-Inf,0,0
"1917-12-31","USW00013876",33.5656,-86.745,1917,365,365,365,NA,NA,NA,0,-Inf,Inf,-Inf,Inf,0,0,0,0,-Inf,0,0
"1918-12-31","USW00013876",33.5656,-86.745,1918,365,365,365,NA,NA,NA,0,-Inf,Inf,-Inf,Inf,0,0,0,0,-Inf,0,0
"1919-12-31","USW00013876",33.5656,-86.745,1919,365,365,365,NA,NA,NA,0,-Inf,Inf,-Inf,Inf,0,0,0,0,-Inf,0,0
"1920-12-31","USW00013876",33.5656,-86.745,1920,366,366,366,NA,NA,NA,0,-Inf,Inf,-Inf,Inf,0,0,0,0,-Inf,0,0
"1921-12-31","USW00013876",33.5656,-86.745,1921,365,365,365,NA,NA,NA,0,-Inf,Inf,-Inf,Inf,0,0,0,0,-Inf,0,0
"1922-12-31","USW00013876",33.5656,-86.745,1922,365,365,365,NA,NA,NA,0,-Inf,Inf,-Inf,Inf,0,0,0,0,-Inf,0,0
"1923-12-31","USW00013876",33.5656,-86.745,1923,365,365,365,NA,NA,NA,0,-Inf,Inf,-Inf,Inf,0,0,0,0,-Inf,0,0
"1924-12-31","USW00013876",33.5656,-86.745,1924,366,366,366,NA,NA,NA,0,-Inf,Inf,-Inf,Inf,0,0,0,0,-Inf,0,0
"1925-12-31","USW00013876",33.5656,-86.745,1925,365,365,365,NA,NA,NA,0,-Inf,Inf,-Inf,Inf,0,0,0,0,-Inf,0,0
"1926-12-31","USW00013876",33.5656,-86.745,1926,365,365,365,NA,NA,NA,0,-Inf,Inf,-Inf,Inf,0,0,0,0,-Inf,0,0
"1927-12-31","USW00013876",33.5656,-86.745,1927,365,365,365,NA,NA,NA,0,-Inf,Inf,-Inf,Inf,0,0,0,0,-Inf,0,0
"1928-12-31","USW00013876",33.5656,-86.745,1928,366,366,366,NA,NA,NA,0,-Inf,Inf,-Inf,Inf,0,0,0,0,-Inf,0,0
"1929-12-31","USW00013876",33.5656,-86.745,1929,365,365,365,NA,NA,NA,0,-Inf,Inf,-Inf,Inf,0,0,0,0,-Inf,0,0
"1930-12-31","USW00013876",33.5656,-86.745,1930,0,0,0,63.78,73.87,53.68,47.63,107,31,79,11,11.51,7.12,12.6,10.14,4.02,5.06,27.77
"1931-12-31","USW00013876",33.5656,-86.745,1931,0,0,0,65.1,75.55,54.65,36.14,106,40,78,18,14.79,8.49,8.77,6.03,1.9,4.21,11.13
"1932-12-31","USW00013876",33.5656,-86.745,1932,0,0,0,64.26,73.96,54.56,75.36,99,31,77,16,7.12,9.04,10.14,8.49,3.09,6.17,47.46
"1933-12-31","USW00013876",33.5656,-86.745,1933,0,0,0,65.61,75.74,55.49,43.58,102,30,75,7,7.12,4.11,7.67,6.3,2.89,3.46,19.59
"1934-12-31","USW00013876",33.5656,-86.745,1934,0,0,0,63.67,73.49,53.85,63.95,100,29,79,10,5.21,7.95,13.15,8.77,4.01,8.88,37.3
"1935-12-31","USW00013876",33.5656,-86.745,1935,0,0,0,64.15,74.18,54.12,54.68,104,29,77,13,6.85,7.95,13.7,11.23,4.04,4.57,34.6
"1936-12-31","USW00013876",33.5656,-86.745,1936,0,0,0,64.06,74.29,53.82,54.2,102,27,77,8,10.96,6.58,14.79,10.41,3.84,5.54,24.82
"1937-12-31","USW00013876",33.5656,-86.745,1937,0,0,0,63.56,73.27,53.85,56.69,100,26,76,12,7.12,5.48,11.23,10.68,3.26,6.96,33.76
"1938-12-31","USW00013876",33.5656,-86.745,1938,1,1,0,65.15,75.26,55.04,50.4,103,34,74,19,4.38,6.85,10.41,9.32,3.9,7.09,28.78
"1939-12-31","USW00013876",33.5656,-86.745,1939,0,0,0,64.47,74.23,54.7,55.8,99,38,76,22,2.74,4.93,8.77,6.03,3.33,5.81,30.65
"1940-12-31","USW00013876",33.5656,-86.745,1940,0,0,0,61.54,71.28,51.8,53.05,97,20,78,1,5.75,5.75,15.89,13.42,3.01,4.13,26.4
"1941-12-31","USW00013876",33.5656,-86.745,1941,0,0,0,64.25,73.88,54.62,50.05,96,34,75,21,3.56,8.49,12.6,11.23,4.15,6.66,25.76
"1942-12-31","USW00013876",33.5656,-86.745,1942,0,0,0,63.16,73.11,53.2,44.09,99,25,76,7,3.84,4.93,14.25,11.23,7.7,7.95,23.71
"1943-12-31","USW00013876",33.5656,-86.745,1943,1,1,0,63.72,73.91,53.53,36.94,103,29,77,14,10.96,12.6,15.62,12.05,2.78,4.52,18.5
"1944-12-31","USW00013876",33.5656,-86.745,1944,0,0,0,64.09,73.81,54.36,52.91,99,31,77,18,6.58,5.75,13.7,7.67,2.16,4.77,22.46
"1945-12-31","USW00013876",33.5656,-86.745,1945,0,0,1,64.14,74.27,54.02,54.47,100,34,75,12,8.49,4.93,13.97,10.41,3.33,3.94,27.38
"1946-12-31","USW00013876",33.5656,-86.745,1946,0,0,0,63.31,74.37,52.24,66.71,94,38,74,17,0.82,1.1,8.49,12.05,3.65,6.47,40.06
"1947-12-31","USW00013876",33.5656,-86.745,1947,0,1,0,61.8,72.88,50.71,51.48,103,32,78,13,4.38,3.84,14.79,18.9,2.48,4.59,23.68
"1948-12-31","USW00013876",33.5656,-86.745,1948,0,0,0,62.77,73.82,51.73,62.63,100,29,75,9,6.58,3.29,13.15,13.15,4.15,6.46,37.33
"1949-12-31","USW00013876",33.5656,-86.745,1949,0,0,0,63.85,74.5,53.2,57.75,96,33,76,20,3.01,5.21,7.95,11.51,3.77,7.45,25.92
"1950-12-31","USW00013876",33.5656,-86.745,1950,0,0,0,62.7,73.48,51.92,55.46,96,25,74,5,1.64,0.55,11.78,15.34,3.13,7.47,30.76
"1951-12-31","USW00013876",33.5656,-86.745,1951,0,0,0,63.34,74.83,51.84,64.4,100,23,79,7,10.68,4.38,12.33,16.44,5.89,6.82,39.51
"1952-12-31","USW00013876",33.5656,-86.745,1952,0,0,0,62.97,74.83,51.1,43.15,106,36,76,20,13.97,7.4,11.23,12.6,2.58,7.11,24.63
"1953-12-31","USW00013876",33.5656,-86.745,1953,1,1,0,63.83,75.63,52.02,49.96,99,35,77,14,11.23,4.38,9.59,10.96,4.11,5.31,26.43
"1954-12-31","USW00013876",33.5656,-86.745,1954,0,0,0,63.95,76.09,51.81,40.66,103,32,78,21,18.36,8.49,10.68,18.36,2.78,3.52,20.23
"1955-12-31","USW00013876",33.5656,-86.745,1955,0,0,0,63.14,74.54,51.74,46.35,97,32,75,17,4.66,1.1,14.79,16.71,1.97,4.22,23.22
"1956-12-31","USW00013876",33.5656,-86.745,1956,0,0,0,63.41,74.84,51.98,53.64,100,38,74,21,8.22,1.92,9.04,13.97,2.74,4.05,23.29
"1957-12-31","USW00013876",33.5656,-86.745,1957,0,0,0,63.69,73.8,53.58,59.77,99,33,77,14,5.48,5.21,10.41,10.14,3.85,5.68,33.87
"1958-12-31","USW00013876",33.5656,-86.745,1958,0,0,0,61.21,72.04,50.38,42.02,97,23,75,3,3.56,6.03,17.53,19.73,2.93,4.19,12.69
"1959-12-31","USW00013876",33.5656,-86.745,1959,1,0,0,63.09,73.79,52.39,51.69,98,28,74,12,6.03,3.84,10.96,14.52,3.08,3.87,23.55
"1960-12-31","USW00013876",33.5656,-86.745,1960,0,0,0,61.63,72.36,50.91,40.76,98,33,76,13,9.32,6.58,19.18,17.26,2.64,2.79,15.57
"1961-12-31","USW00013876",33.5656,-86.745,1961,0,0,0,62.56,73.53,51.6,76.48,96,32,75,13,2.74,3.56,12.05,12.05,5.46,14.22,46.86
"1962-12-31","USW00013876",33.5656,-86.745,1962,0,0,0,64.12,75.47,52.78,48.14,102,13,77,1,17.81,6.03,12.33,11.23,2.66,4.88,26.54
"1963-12-31","USW00013876",33.5656,-86.745,1963,0,0,0,61.79,73.13,50.45,55.07,98,22,75,-2,3.29,4.11,16.16,20.55,3.44,5.24,35.33
"1964-12-31","USW00013876",33.5656,-86.745,1964,1,0,0,62.5,73.27,51.73,57.79,99,28,74,13,3.84,1.37,13.15,14.25,3.34,4.25,36.75
"1965-12-31","USW00013876",33.5656,-86.745,1965,1,0,0,61.94,72.97,50.92,44.16,94,30,76,8,0.27,1.37,11.51,18.9,2.35,4.27,19.45
"1966-12-31","USW00013876",33.5656,-86.745,1966,0,0,0,60.55,71.39,49.7,56.06,102,18,74,-4,3.84,2.47,14.52,16.99,3.81,6.19,33.75
"1967-12-31","USW00013876",33.5656,-86.745,1967,0,0,0,61.01,72.48,49.54,66.84,94,28,72,12,0.82,0,13.15,17.26,4.55,5.93,43.1
"1968-12-31","USW00013876",33.5656,-86.745,1968,0,0,0,60.74,72.33,49.15,51.2,99,29,75,15,5.75,1.37,17.53,22.19,3.96,6.69,26.76
"1969-12-31","USW00013876",33.5656,-86.745,1969,0,0,0,60.83,71.99,49.67,59.07,97,30,77,11,5.75,6.85,15.34,21.1,3.41,6.3,40.36
"1970-12-31","USW00013876",33.5656,-86.745,1970,0,0,0,62.04,73.27,50.81,51.66,101,22,76,5,6.3,5.21,14.52,17.26,6.91,8.92,27.04
"1971-12-31","USW00013876",33.5656,-86.745,1971,0,0,0,61.97,73.11,50.82,57.79,98,29,73,10,1.64,0.55,11.78,14.79,3.74,4.42,29.05
"1972-12-31","USW00013876",33.5656,-86.745,1972,0,0,0,61.8,72.6,51.01,52.55,97,31,75,7,1.64,1.1,13.7,13.15,2.74,3.88,25.31
"1973-12-31","USW00013876",33.5656,-86.745,1973,0,0,0,62.13,72.68,51.58,66.11,95,29,74,14,0.82,3.01,11.78,15.89,2.2,3.65,45.8
"1974-12-31","USW00013876",33.5656,-86.745,1974,0,0,0,62.99,73.66,52.33,56,95,36,75,18,0.55,1.37,7.67,10.96,2.45,3.75,28.88
"1975-12-31","USW00013876",33.5656,-86.745,1975,0,0,0,62.74,72.92,52.56,55.27,96,30,74,14,0.82,1.92,12.6,13.42,2.72,4.04,28.81
"1976-12-31","USW00013876",33.5656,-86.745,1976,0,0,0,60.25,71.77,48.74,55.15,98,32,73,10,1.64,1.1,13.15,18.63,2.58,5.32,30.48
"1977-12-31","USW00013876",33.5656,-86.745,1977,0,0,0,62.67,73.15,52.19,60.04,105,24,78,3,9.32,14.25,15.07,17.26,3.55,5.5,36.22
"1978-12-31","USW00013876",33.5656,-86.745,1978,0,0,0,61.14,71.89,50.4,41.79,99,25,78,14,4.66,4.38,20.27,20.27,1.86,3.54,16.54
"1979-12-31","USW00013876",33.5656,-86.745,1979,0,0,0,61.53,71.75,51.32,69.7,99,31,77,12,1.37,3.84,15.62,13.7,4.61,7.9,47.03
"1980-12-31","USW00013876",33.5656,-86.745,1980,0,0,0,62.53,73.83,51.24,61.47,106,24,79,11,14.79,8.22,14.79,16.71,3.91,5.47,35.39
"1981-12-31","USW00013876",33.5656,-86.745,1981,0,0,0,62.24,73.94,50.54,41.88,102,32,79,9,8.49,7.12,13.97,17.26,2.5,3.66,19.13
"1982-12-31","USW00013876",33.5656,-86.745,1982,0,0,0,63.3,74.25,52.35,57.85,96,27,76,-1,2.19,4.11,11.23,12.6,3.04,6.94,32.22
"1983-12-31","USW00013876",33.5656,-86.745,1983,0,0,0,60.29,71.12,49.46,65.96,102,18,77,2,7.12,3.01,17.53,19.18,4.41,7.73,41.45
"1984-12-31","USW00013876",33.5656,-86.745,1984,0,0,0,62.19,73.96,50.43,47.62,97,30,74,11,3.01,0.55,11.51,16.71,2.36,3.63,24.18
"1985-12-31","USW00013876",33.5656,-86.745,1985,0,0,0,61.86,72.54,51.18,50.67,100,22,73,-6,3.29,1.1,15.07,18.36,5.47,6.98,24.7
"1986-12-31","USW00013876",33.5656,-86.745,1986,0,0,0,63.48,75.09,51.87,41.07,101,29,75,12,9.04,3.56,10.96,16.16,2.13,4.41,23.24
"1987-12-31","USW00013876",33.5656,-86.745,1987,0,0,0,62.52,74.45,50.59,45.32,101,33,77,13,7.95,4.38,11.78,16.16,2.67,3.97,21.02
"1988-12-31","USW00013876",33.5656,-86.745,1988,0,0,0,61.52,73.16,49.88,43.97,100,26,76,12,9.04,4.11,13.7,18.63,2.65,4.6,22.55
"1989-12-31","USW00013876",33.5656,-86.745,1989,0,0,0,61.59,72.25,50.94,53.71,96,15,76,1,4.11,2.74,14.52,13.7,2.43,4.68,26.82
"1990-12-31","USW00013876",33.5656,-86.745,1990,0,0,0,64.76,76.9,52.62,47.46,103,32,75,16,13.7,4.38,5.75,10.68,2.8,4.13,23.38
"1991-12-31","USW00013876",33.5656,-86.745,1991,0,0,0,64.07,74.78,53.36,53.49,98,38,76,12,6.85,5.21,11.23,13.7,2.36,3.63,27.14
"1992-12-31","USW00013876",33.5656,-86.745,1992,0,0,0,61.61,72.67,50.55,55.6,95,34,75,17,1.92,3.01,10.96,13.42,2.69,4.64,30.65
"1993-12-31","USW00013876",33.5656,-86.745,1993,0,0,0,62.12,73.31,50.93,39.2,102,32,77,2,10.41,4.93,15.07,15.62,1.88,2.96,13.77
"1994-12-31","USW00013876",33.5656,-86.745,1994,0,0,0,62.79,73.53,52.05,60.25,94,27,77,9,0.27,1.37,11.23,12.33,2.45,3.92,40.84
"1995-12-31","USW00013876",33.5656,-86.745,1995,0,0,0,63.07,74.44,51.7,55.12,103,33,77,13,14.79,8.49,15.62,15.89,6.94,10.73,30.04
"1996-12-31","USW00013876",33.5656,-86.745,1996,0,0,0,61.92,72.94,50.9,62.91,96,18,76,4,2.47,2.74,12.6,18.9,4.71,6.75,38.65
"1997-12-31","USW00013876",33.5656,-86.745,1997,0,0,0,61.86,72.59,51.13,55.49,97,30,77,12,2.47,5.21,11.78,13.15,2.46,3.92,24.2
"1998-12-31","USW00013876",33.5656,-86.745,1998,0,0,0,64.92,75.5,54.35,67.27,99,35,76,19,10.68,10.68,10.96,9.86,3.34,5.16,43.02
"1999-12-31","USW00013876",33.5656,-86.745,1999,0,0,0,64.43,75.6,53.26,48.77,103,28,78,12,10.14,9.59,6.3,10.68,3.51,5.96,24.78
"2000-12-31","USW00013876",33.5656,-86.745,2000,0,0,0,63.38,74.45,52.3,50.24,103,31,79,12,11.23,5.48,14.52,14.25,4.69,6.87,27.19
"2001-12-31","USW00013876",33.5656,-86.745,2001,0,0,0,62.49,73.16,51.82,66.73,95,29,76,12,0.27,6.03,11.23,13.42,4.13,8.06,41.23
"2002-12-31","USW00013876",33.5656,-86.745,2002,0,0,0,63.42,73.47,53.36,64.41,99,35,77,15,4.66,7.12,11.78,15.34,3.2,6.47,41.37
"2003-12-31","USW00013876",33.5656,-86.745,2003,0,0,0,62.57,72.72,52.42,65.58,93,29,74,7,0,4.93,13.7,13.97,5.71,8.22,39.83
"2004-12-31","USW00013876",33.5656,-86.745,2004,0,0,0,63.52,73.33,53.7,61.32,95,30,75,15,0.55,2.19,12.6,12.05,9.75,9.88,38.81
"2005-12-31","USW00013876",33.5656,-86.745,2005,0,0,0,63.37,73.72,53.02,49.2,97,34,77,18,3.29,11.23,13.15,11.51,2.48,4.91,24.41
"2006-12-31","USW00013876",33.5656,-86.745,2006,0,0,0,64.83,75.69,53.97,56.56,100,40,79,17,12.05,12.88,8.22,10.41,3.58,5.51,33.17
"2007-12-31","USW00013876",33.5656,-86.745,2007,0,0,0,65.47,76.35,54.6,28.86,105,38,81,18,12.33,15.34,11.51,11.78,1.98,3.59,9.91
"2008-12-31","USW00013876",33.5656,-86.745,2008,0,0,0,63.45,73.86,53.04,55.09,99,32,78,13,3.84,10.14,11.51,13.15,2.81,7.28,33.15
"2009-12-31","USW00013876",33.5656,-86.745,2009,0,0,0,62.94,72.78,53.1,71.66,96,32,77,12,3.29,7.4,12.33,13.15,4.01,6.09,42.64
"2010-12-31","USW00013876",33.5656,-86.745,2010,0,0,0,63.33,74.28,52.37,47.89,102,26,81,14,16.44,19.73,18.63,20,3.14,5.06,28.83
"2011-12-31","USW00013876",33.5656,-86.745,2011,0,0,0,64.46,75.32,53.59,58.32,100,30,79,16,17.81,12.6,12.33,10.68,7.11,8.3,34.9
"2012-12-31","USW00013876",33.5656,-86.745,2012,0,0,0,65.52,76.08,54.96,49.36,104,38,78,20,7.12,12.6,5.75,7.95,4.31,4.75,23.54
"2013-12-31","USW00013876",33.5656,-86.745,2013,0,0,0,62.56,72.27,52.84,67.87,95,39,75,18,0.82,7.4,13.7,15.07,3.57,5.58,44.03
"2014-12-31","USW00013876",33.5656,-86.745,2014,0,0,0,62.46,73.24,51.68,49.77,99,24,76,7,4.38,7.67,13.97,17.81,2.47,4.72,28.83
"2015-12-31","USW00013876",33.5656,-86.745,2015,0,0,0,64.75,74.67,54.84,60.92,99,31,77,8,9.59,12.33,11.23,13.97,4.4,6.06,32.76
"2016-12-31","USW00013876",33.5656,-86.745,2016,0,0,0,66.26,76.93,55.6,40.31,100,37,81,19,14.25,16.99,10.41,10.41,2.52,3.2,22.7
"2017-12-31","USW00013876",33.5656,-86.745,2017,0,0,0,65.59,75.52,55.66,69.04,96,31,77,13,0.82,12.6,8.49,9.04,3.64,5.19,45.62
"2018-12-31","USW00013876",33.5656,-86.745,2018,0,0,0,64.92,75.01,54.83,61.09,97,28.2,78.1,9.1,6.85,13.15,11.51,12.05,3.14,6.33,34.3
"2019-12-31","USW00013876",33.5656,-86.745,2019,0,0,0,65.89,76.43,55.34,52.55,100.9,37,78.1,18.1,14.52,13.15,8.22,8.22,2.83,4.13,29.45
"2020-12-31","USW00013876",33.5656,-86.745,2020,0,0,0,65.2,75.27,55.14,73.12,96.1,37,77,21.2,3.84,13.97,6.58,8.49,3.78,6.48,49.54
"2021-12-31","USW00013876",33.5656,-86.745,2021,2,2,3,64.69,74.66,54.72,69.61,96.1,29.1,75.9,16.2,1.37,10.68,7.4,7.67,4.36,7.63,47.9
